Flag for Germany Weather past 2 weeks in Gelsenkirchen, North Rhine-Westphalia, Germany

Now
50 °F

Passing clouds.


Feels Like: 50 °F
Forecast: 47 / 67 °F
Wind: 2 mph from Southwest

Location: Duesseldorf

Current Time: Jul 30, 2015 at 4:13:44 AM

Latest Report: Jul 30, 2015 at 3:00 AM


Visibility: 31 mi

Pressure: 29.93 "Hg

Humidity: 92%

Dew point: 47 °F

Location of GelsenkirchenLocation

Historic Weather in Gelsenkirchen — Graph

°F

Gelsenkirchen temperature yesterday

Maximum temperature yesterday: 65 °F (at 6:00 PM)
Minimum temperature yesterday: 52 °F (at 1:00 PM)
Average temperature yesterday: 58 °F

Past Weeks' High & Low Weather Summary

 TemperatureHumidityPressure
High90 °F (Jul 17, 4:00 PM)98% (Jul 16, 4:00 AM)30.12 "Hg (Jul 16, 4:00 AM)
Low50 °F (Jul 30, 3:00 AM)30% (Jul 17, 4:00 PM)29.50 "Hg (Jul 25, 7:00 AM)
Average67 °F69%29.88 "Hg
* Reported Jul 15 3:00 AM — Jul 30 3:00 AM, Gelsenkirchen, Weather by CustomWeather, © 2015

Note: Actual official high and low records may vary slightly from our data, if they occured in-between our weather recording intervals... More about our weather records

Advertising

Gelsenkirchen weather history for previous 24 hours

 ConditionsComfort  
Time TempWeatherWind HumidityBarometerVisibility
3:00 AM
Thu, Jul 30
50 °FPassing clouds.2 mph92%29.93 "Hg31 mi
2:00 AM52 °FPassing clouds.2 mph87%29.92 "Hg34 mi
1:00 AM52 °FPassing clouds.5 mph86%29.92 "Hg37 mi
10:00 PM
Wed, Jul 29
58 °FPassing clouds.3 mph72%29.90 "Hg37 mi
9:00 PM59 °FPartly sunny.7 mph65%29.88 "Hg37 mi
8:00 PM62 °FPartly sunny.8 mph58%29.86 "Hg31 mi
7:00 PM63 °FPartly sunny.12 mph48%29.83 "Hg31 mi
6:00 PM65 °FScattered clouds.10 mph48%29.81 "Hg31 mi
5:00 PM64 °FThunderstorms. Scattered clouds.3 mph66%29.80 "Hg25 mi
4:00 PM62 °FPartly sunny.5 mph58%29.80 "Hg16 mi
3:00 PM57 °FPartly sunny.7 mph73%29.80 "Hg28 mi
2:00 PM60 °FThunderstorms. Partly sunny.8 mph61%29.79 "Hg25 mi
1:00 PM52 °FLight rain. Partly sunny.7 mph87%29.78 "Hg7 mi
12:00 PM61 °FScattered clouds.10 mph57%29.76 "Hg25 mi
10:00 AM58 °FOvercast.8 mph75%29.77 "Hg19 mi
9:00 AM57 °FPartly sunny.7 mph78%29.78 "Hg19 mi
8:00 AM56 °FOvercast.6 mph80%29.78 "Hg19 mi
7:00 AM55 °FScattered clouds.7 mph80%29.77 "Hg25 mi
6:00 AM55 °FScattered clouds.7 mph81%29.78 "Hg25 mi
4:00 AM55 °FPassing clouds.9 mph76%29.78 "Hg25 mi
Weather by CustomWeather, © 2015

See weather overviewHow to use our weather pages